{"data":{"norad_id":65069,"epoch":"2026-05-25T03:32:33.963648Z","epoch_age_seconds":58699,"freshness":"FRESH","line1":"1 65069U 25165P   26145.14761532  .00006573  00000+0  45904-3 0  9997","line2":"2 65069  97.4497 222.2022 0002195 158.5745 201.5574 15.05660715 46293","mean_motion":15.05660715,"eccentricity":0.0002195,"inclination_deg":97.4497,"raan_deg":222.2022,"arg_perigee_deg":158.5745,"mean_anomaly_deg":201.5574,"bstar":0.00045904,"rev_number":4629,"period_min":95.639076297478,"perigee_km":547.95767547832,"apogee_km":550.99889858933,"semimajor_km":6927.6152870338,"source":"CELESTRAK","updated_at":"2026-05-25T13:38:20.679243Z"}}